Weather History for KMQS - January, 2014

Change the Weather History Date:

Tuesday, January 21, 2014

  Actual Average (KLNS) Record (KLNS)
Temperature  
Mean Temperature 22 °F -  
Max Temperature 33 °F 35 °F 61 °F (2006)
Min Temperature 12 °F 20 °F -8 °F (1985)
Degree Days  
Heating Degree Days 42    
Moisture  
Dew Point 15 °F    
Average Humidity 76    
Maximum Humidity 93    
Minimum Humidity 48    
Precipitation  
Precipitation 25.82 in - - ()
Sea Level Pressure  
Sea Level Pressure 29.87 in    
Wind  
Wind Speed 8 mph (NNE)    
Max Wind Speed 16 mph    
Max Gust Speed 26 mph    
Visibility 5 miles    
Events Snow    
Averages and records for this station are not official NWS values.
T = Trace of Precipitation, MM = Missing Value Source: NWS Daily Summary

Daily Weather History Graph

Daily Weather History Graph

Search for Another Location

Airport or City:

Trip Planner

Search our weather history database for the weather conditions in past years. The results will help you decide how hot, cold, wet, or windy it might be!

Date:

Astronomy

Jan. 21, 2014 Rise Set
Actual Time 7:20 AM EST 5:09 PM EST
Civil Twilight 6:51 AM EST 5:38 PM EST
Nautical Twilight 6:18 AM EST 6:11 PM EST
Astronomical Twilight 5:45 AM EST 6:44 PM EST
Moon 10:40 PM EST (1/21) 9:49 AM EST (1/21)
Length of Visible Light 10h 47m
Length of Day
9h 49m
Waning Gibbous, 75% of the Moon is Illuminated
Jan 21
Waning Gibbous
Jan 24
Last Quarter
Jan 30
New
Feb 6
First Quarter
Feb 14
Full

Hourly Weather History & Observations

Time (EST) Temp. Windchill Dew Point Humidity Pressure Visibility Wind Dir Wind Speed Gust Speed Precip Events Conditions
12:15 AM 33.8 °F 27.7 °F 23.0 °F 65% 29.88 in 10.0 mi NW 6.9 mph - N/A   Clear
12:35 AM 33.8 °F 27.0 °F 21.2 °F 60% 29.88 in 10.0 mi NNW 8.1 mph - N/A   Clear
12:55 AM 33.8 °F 28.6 °F 21.2 °F 60% 29.88 in 10.0 mi NNW 5.8 mph - N/A   Clear
1:15 AM 33.8 °F 29.6 °F 21.2 °F 60% 29.88 in 10.0 mi NNW 4.6 mph - N/A   Clear
1:35 AM 33.8 °F 30.8 °F 21.2 °F 60% 29.89 in 10.0 mi North 3.5 mph - N/A   Partly Cloudy
1:55 AM 32.0 °F 26.4 °F 21.2 °F 64% 29.89 in 10.0 mi North 5.8 mph - N/A   Partly Cloudy
2:15 AM 32.0 °F 27.5 °F 21.2 °F 64% 29.89 in 10.0 mi North 4.6 mph - N/A   Clear
2:35 AM 32.0 °F 24.8 °F 21.2 °F 64% 29.89 in 10.0 mi NNE 8.1 mph - N/A   Clear
2:55 AM 32.0 °F 24.2 °F 23.0 °F 69% 29.90 in 10.0 mi NNE 9.2 mph - N/A   Clear
3:15 AM 30.2 °F 23.4 °F 21.2 °F 69% 29.90 in 10.0 mi NNE 6.9 mph - N/A   Clear
3:35 AM 30.2 °F 24.3 °F 21.2 °F 69% 29.91 in 10.0 mi NNE 5.8 mph - N/A   Clear
3:55 AM 30.2 °F 23.4 °F 19.4 °F 64% 29.90 in 10.0 mi NE 6.9 mph - N/A   Clear
4:15 AM 28.4 °F 21.2 °F 19.4 °F 69% 29.89 in 10.0 mi NE 6.9 mph - N/A   Clear
4:35 AM 28.4 °F 20.4 °F 17.6 °F 64% 29.90 in 10.0 mi ENE 8.1 mph 16.1 mph N/A   Clear
4:55 AM 28.4 °F 24.6 °F 17.6 °F 64% 29.90 in 10.0 mi NE 3.5 mph - N/A   Clear
5:15 AM 28.4 °F 22.2 °F 17.6 °F 64% 29.90 in 10.0 mi ENE 5.8 mph - N/A   Clear
5:35 AM 28.4 °F 22.2 °F 17.6 °F 64% 29.90 in 10.0 mi NE 5.8 mph - N/A   Clear
5:55 AM 26.6 °F 20.0 °F 17.6 °F 69% 29.90 in 10.0 mi NNE 5.8 mph - N/A   Clear
6:15 AM 26.6 °F 16.8 °F 15.8 °F 64% 29.90 in 10.0 mi NNE 10.4 mph - N/A   Clear
6:35 AM 26.6 °F 19.1 °F 14.0 °F 59% 29.89 in 10.0 mi NNE 6.9 mph - N/A   Clear
6:55 AM 26.6 °F 21.2 °F 14.0 °F 59% 29.90 in 10.0 mi NE 4.6 mph - N/A   Clear
7:15 AM 26.6 °F 22.6 °F 12.2 °F 55% 29.90 in 10.0 mi NE 3.5 mph - N/A   Clear
7:35 AM 24.8 °F 16.9 °F 12.2 °F 59% 29.90 in 10.0 mi NE 6.9 mph - N/A   Clear
7:55 AM 24.8 °F 20.5 °F 12.2 °F 59% 29.90 in 10.0 mi ENE 3.5 mph - N/A   Clear
8:15 AM 24.8 °F 19.1 °F 12.2 °F 59% 29.91 in 10.0 mi ENE 4.6 mph - N/A   Partly Cloudy
8:35 AM 23.0 °F 17.0 °F 14.0 °F 68% 29.91 in 4.0 mi NE 4.6 mph - N/A Snow Light Snow
8:55 AM 23.0 °F 13.9 °F 17.6 °F 80% 29.92 in 2.5 mi NE 8.1 mph - 0.02 in Snow Light Snow
9:15 AM 23.0 °F 14.7 °F 19.4 °F 86% 29.92 in 1.0 mi NE 6.9 mph - 0.08 in Snow Light Snow
9:35 AM 23.0 °F 14.7 °F 19.4 °F 86% 29.93 in 0.5 mi NE 6.9 mph - 0.40 in Snow Light Snow
9:55 AM 23.0 °F 12.4 °F 19.4 °F 86% 29.93 in 0.2 mi NE 10.4 mph 16.1 mph 0.75 in Snow Snow
10:15 AM 21.2 °F 14.9 °F 19.4 °F 93% 29.94 in 0.2 mi NE 4.6 mph - 0.40 in Snow Snow
10:35 AM 21.2 °F 11.7 °F 19.4 °F 93% 29.94 in 0.2 mi NNE 8.1 mph - 1.38 in Snow Snow
10:55 AM 21.2 °F 12.6 °F 19.4 °F 93% 29.93 in 0.2 mi NE 6.9 mph - 2.96 in Snow Heavy Snow
11:15 AM 21.2 °F 11.7 °F 19.4 °F 93% 29.92 in 0.2 mi NNE 8.1 mph - 1.31 in Snow Heavy Snow
11:35 AM 21.2 °F 8.9 °F 17.6 °F 86% 29.90 in 0.2 mi NNE 12.7 mph 19.6 mph 3.22 in Snow Heavy Snow
11:55 AM 21.2 °F 8.9 °F 17.6 °F 86% 29.88 in 0.2 mi NNE 12.7 mph 18.4 mph 4.18 in Snow Light Snow
12:15 PM 21.2 °F 10.1 °F 17.6 °F 86% 29.86 in 0.2 mi NNE 10.4 mph 17.3 mph 0.70 in Snow Snow
12:35 PM 21.2 °F 7.8 °F 17.6 °F 86% 29.83 in 0.5 mi NNE 15.0 mph 23.0 mph 1.22 in Snow Snow
12:55 PM 21.2 °F 9.5 °F 17.6 °F 86% 29.81 in 0.5 mi NNE 11.5 mph 21.9 mph 1.58 in Snow Snow
1:15 PM 21.2 °F 8.9 °F 17.6 °F 86% 29.80 in 0.8 mi NNE 12.7 mph 18.4 mph 0.27 in Snow Light Snow
1:35 PM 21.2 °F 9.5 °F 17.6 °F 86% 29.79 in 0.8 mi North 11.5 mph 17.3 mph 0.64 in Snow Light Snow
1:55 PM 21.2 °F 8.9 °F 17.6 °F 86% 29.79 in 0.8 mi North 12.7 mph 20.7 mph 0.94 in Snow Snow
2:15 PM 21.2 °F 9.5 °F 17.6 °F 86% 29.79 in 0.5 mi NNE 11.5 mph 23.0 mph 0.31 in Snow Light Snow
2:35 PM 21.2 °F 8.3 °F 17.6 °F 86% 29.78 in 0.5 mi North 13.8 mph 19.6 mph 0.76 in Snow Snow
2:55 PM 19.4 °F 7.2 °F 17.6 °F 93% 29.78 in 0.5 mi North 11.5 mph 17.3 mph 1.50 in Snow Snow
3:15 PM 19.4 °F 7.9 °F 17.6 °F 93% 29.78 in 0.2 mi NNE 10.4 mph 19.6 mph 0.61 in Snow Snow
3:35 PM 19.4 °F 7.2 °F 17.6 °F 93% 29.80 in 0.5 mi NNE 11.5 mph 16.1 mph 1.52 in Snow Snow
3:55 PM 19.4 °F 7.2 °F 15.8 °F 86% 29.80 in 0.5 mi NNE 11.5 mph 18.4 mph 2.27 in Snow Snow
4:15 PM 19.4 °F 7.9 °F 15.8 °F 86% 29.82 in 0.5 mi NNE 10.4 mph - 0.49 in Snow Snow
4:35 PM 19.4 °F 9.5 °F 15.8 °F 86% 29.82 in 0.2 mi NNE 8.1 mph - 1.42 in Snow Snow
4:55 PM 19.4 °F 7.9 °F 15.8 °F 86% 29.83 in 0.5 mi North 10.4 mph 16.1 mph 2.16 in Snow Snow
5:15 PM 19.4 °F 10.4 °F 17.6 °F 93% 29.84 in 0.8 mi NNE 6.9 mph - 0.74 in Snow Snow
5:35 PM 19.4 °F 8.6 °F 15.8 °F 86% 29.84 in 0.8 mi North 9.2 mph - 1.61 in Snow Snow
5:55 PM 19.4 °F 7.9 °F 14.0 °F 80% 29.85 in 1.5 mi North 10.4 mph 21.9 mph 2.05 in Snow Snow
6:15 PM 17.6 °F 8.2 °F 14.0 °F 86% 29.86 in 0.8 mi North 6.9 mph - 0.86 in Snow Heavy Snow
6:35 PM 17.6 °F 7.3 °F 14.0 °F 86% 29.86 in 0.8 mi North 8.1 mph - 3.47 in Snow Snow
6:55 PM 17.6 °F 5.7 °F 14.0 °F 86% 29.87 in 1.0 mi North 10.4 mph - 4.21 in Snow Heavy Snow
7:15 PM 17.6 °F 5.0 °F 12.2 °F 79% 29.86 in 1.8 mi North 11.5 mph - 0.29 in Snow Snow
7:35 PM 15.8 °F 2.7 °F 12.2 °F 86% 29.86 in 1.0 mi North 11.5 mph 18.4 mph 1.65 in Snow Snow
7:55 PM 15.8 °F 0.9 °F 12.2 °F 86% 29.86 in 2.5 mi North 15.0 mph 20.7 mph 1.86 in Snow Light Snow
8:15 PM 15.8 °F 2.1 °F 10.4 °F 79% 29.87 in 3.0 mi North 12.7 mph 20.7 mph 0.04 in Snow Light Snow
8:35 PM 15.8 °F 1.4 °F 10.4 °F 79% 29.88 in 2.0 mi North 13.8 mph 19.6 mph 0.21 in Snow Light Snow
8:55 PM 14.0 °F -0.2 °F 10.4 °F 86% 29.88 in 2.5 mi North 12.7 mph - 0.33 in Snow Light Snow
9:15 PM 14.0 °F -1.4 °F 10.4 °F 86% 29.88 in 2.5 mi North 15.0 mph 20.7 mph 0.06 in Snow Light Snow
9:35 PM 14.0 °F 1.2 °F 10.4 °F 86% 29.88 in 1.2 mi North 10.4 mph 17.3 mph 0.43 in Snow Light Snow
9:55 PM 14.0 °F -2.0 °F 10.4 °F 86% 29.87 in 1.5 mi North 16.1 mph 20.7 mph 0.94 in Snow Light Snow
10:15 PM 14.0 °F 1.2 °F 8.6 °F 79% 29.87 in 3.0 mi North 10.4 mph - 0.05 in Snow Light Snow
10:35 PM 14.0 °F -0.8 °F 3.2 °F 62% 29.85 in 7.0 mi North 13.8 mph 19.6 mph 0.07 in Snow Light Snow
10:55 PM 14.0 °F -0.8 °F -0.4 °F 53% 29.84 in 10.0 mi North 13.8 mph 19.6 mph 0.07 in   Clear
11:15 PM 12.2 °F -3.7 °F -4.0 °F 48% 29.83 in 10.0 mi North 15.0 mph 20.7 mph N/A   Clear
11:35 PM 12.2 °F -3.1 °F -4.0 °F 48% 29.83 in 9.0 mi North 13.8 mph 26.5 mph N/A   Clear
11:55 PM 12.2 °F -2.5 °F -4.0 °F 48% 29.84 in 10.0 mi North 12.7 mph 17.3 mph N/A   Clear